[[{"header":{"parameterUnit":"m.s-1","parameterCategory":1,"la1":30.2991,"la2":30.254,"lo1":-89.0895,"lo2":-89.0444,"dx":0.0017,"dy":0.0017,"nx":28,"ny":28,"refTime":"2023-01-20T09:00:00:Z","depth":0,"parameterNumber":2,"parameterNumberName":"U-component_of_WINDS"},"data":[0,0,0,0,0,0,0,0,0,0,0,0,0,0,0,0,0,0,0,0,0,0,0,0,0,0,0,0,0,0,0,0,0,0,0,0,0,0,0,0,0,0,0,0,0,0,0,0,0,0,0,0,0,0,0,0,0,0,-1.7151,-1.7151,0,-1.712,-1.712,-1.7119,-1.7063,-1.7061,-1.706,-1.7059,-1.7029,-1.7029,-1.7029,0,0,0,0,0,0,0,0,0,0,0,0,0,-1.7162,-1.7162,-1.7151,-1.7151,-1.715,-1.712,-1.712,-1.7119,-1.7063,-1.7061,-1.706,-1.7059,-1.7029,-1.7029,-1.7029,0,0,0,0,0,0,0,0,0,0,0,0,0,-1.7147,-1.7162,-1.7151,-1.7118,-1.7115,-1.712,-1.712,-1.7119,-1.7063,-1.7061,-1.706,-1.7058,-1.7029,-1.7029,-1.7029,-1.7064,0,0,-1.703,-1.7031,0,0,0,0,0,0,0,0,-1.7148,-1.7147,-1.7124,-1.7121,-1.7117,-1.7093,-1.7112,-1.7101,-1.7063,-1.7083,-1.7059,-1.7057,-1.7052,-1.705,-1.7048,-1.7063,-1.7062,-1.703,-1.7031,-1.7031,-1.7031,0,0,0,0,0,0,0,-1.7149,-1.7148,-1.7139,-1.7123,-1.7119,-1.7106,-1.7102,-1.711,-1.7077,-1.7081,-1.7077,-1.7074,-1.705,-1.7048,-1.7047,-1.7061,-1.703,-1.7031,-1.7031,-1.7031,-1.7104,-1.7106,0,0,0,0,0,0,-1.7155,-1.7149,-1.714,-1.7138,-1.7129,-1.7107,-1.7102,-1.7103,-1.7077,-1.7071,-1.7075,-1.7071,-1.7048,-1.7047,-1.7046,-1.7086,-1.7031,-1.7031,-1.7031,-1.7102,-1.7104,-1.7106,0,0,0,0,0,0,-1.7155,-1.7154,-1.7141,-1.7142,-1.7139,-1.7108,-1.7109,-1.7103,-1.7101,-1.7072,-1.7066,-1.7079,-1.7047,-1.7045,-1.706,-1.7084,-1.7031,-1.7032,-1.71,-1.7103,-1.7105,-1.7166,0,0,0,0,0,0,-1.7156,-1.7155,-1.7168,-1.7143,-1.714,-1.7156,-1.7111,-1.7104,-1.7102,-1.7096,-1.7075,-1.707,-1.7045,-1.706,-1.7061,-1.7083,-1.7032,-1.7098,-1.7101,-1.7105,-1.7161,-1.717,-1.7177,0,0,0,0,0,-1.7156,-1.7186,-1.7169,-1.7168,-1.7155,-1.7158,-1.7156,-1.7127,-1.7104,-1.7117,-1.7098,-1.707,-1.7081,-1.7062,-1.7062,-1.7085,-1.7096,-1.7101,-1.7104,-1.7158,-1.7168,-1.7177,0,0,0,0,0,0,-1.7215,-1.7182,-1.7162,-1.7185,-1.7174,-1.7148,-1.7163,-1.7139,-1.7135,-1.713,-1.7095,-1.709,-1.711,-1.7099,-1.7079,-1.7118,-1.7084,-1.7088,-1.7125,-1.7135,-1.7142,-1.7145,-1.7032,0,0,0,0,0,-1.723,-1.7234,-1.7206,-1.7229,-1.7224,-1.7195,-1.7195,-1.7174,-1.7161,-1.7157,-1.7139,-1.7129,-1.713,-1.7131,-1.7131,-1.7159,-1.7154,-1.7175,-1.7183,-1.719,-1.7194,-1.7209,-1.7218,-1.7119,-1.7119,-1.7119,0,0,-1.7262,-1.7245,-1.725,-1.724,-1.7229,-1.7235,-1.7191,-1.72,-1.7204,-1.7158,-1.7171,-1.7158,-1.7144,-1.7167,-1.7175,-1.7158,-1.722,-1.7195,-1.72,-1.7201,-1.7214,-1.7223,-1.7232,-1.7122,-1.7121,-1.7121,0,0,-1.7324,-1.7311,-1.7329,-1.7319,-1.7303,-1.7283,-1.7288,-1.7265,-1.7254,-1.7267,-1.7233,-1.7238,-1.724,-1.7231,-1.7228,-1.7286,-1.7261,-1.7287,-1.7329,-1.7344,-1.7352,-1.7358,-1.738,-1.7388,-1.7291,-1.7291,-1.7291,0,-1.7366,-1.7373,-1.7341,-1.7351,-1.7348,-1.7307,-1.7325,-1.7317,-1.7302,-1.7301,-1.7281,-1.7283,-1.7271,-1.7291,-1.7305,-1.7303,-1.7308,-1.729,-1.7353,-1.7359,-1.7365,-1.7386,-1.7394,-1.7295,-1.7294,-1.7294,-1.7293,0,-1.7426,-1.7432,-1.7448,-1.7435,-1.7433,-1.7447,-1.7418,-1.742,-1.7399,-1.7382,-1.7395,-1.7379,-1.7374,-1.7377,-1.7357,-1.7395,-1.7384,-1.7359,-1.7325,-1.7379,-1.7397,-1.7405,-1.7299,-1.7298,-1.7297,-1.7296,0,0,-1.7525,-1.7493,-1.75,-1.7493,-1.7473,-1.7477,-1.7489,-1.7484,-1.7488,-1.7479,-1.7489,-1.7491,-1.7468,-1.7464,-1.7442,-1.7455,-1.7504,-1.7428,-1.7427,-1.7444,-1.7546,-1.7565,-1.7575,-1.7486,-1.7487,-1.7488,-1.7547,0,-1.7583,-1.7602,-1.7574,-1.76,-1.7605,-1.7565,-1.7576,-1.7565,-1.7549,-1.7552,-1.7534,-1.7537,-1.7505,-1.7502,-1.7513,-1.7495,-1.7524,-1.7491,-1.7496,-1.7497,-1.7502,-1.7585,-1.7605,-1.7662,-1.7554,-1.7555,-1.7556,0,-1.7654,-1.7648,-1.7675,-1.7653,-1.7654,-1.7664,-1.7658,-1.766,-1.7647,-1.7635,-1.763,-1.7603,-1.7615,-1.7581,-1.7596,-1.7574,-1.7574,-1.7566,-1.7567,-1.7568,-1.7531,-1.7588,-1.7679,-1.7688,-1.7567,-1.7566,-1.7565,0,-1.7724,-1.7723,-1.7739,-1.7735,-1.7709,-1.7718,-1.7708,-1.7693,-1.7692,-1.7686,-1.7685,-1.7681,-1.7679,-1.7677,-1.7651,-1.7628,-1.767,-1.7633,-1.766,-1.7661,-1.7672,-1.7672,-1.7765,-1.767,-1.767,-1.767,-1.767,0,-1.7793,-1.7811,-1.7771,-1.7781,-1.78,-1.7767,-1.7787,-1.7773,-1.776,-1.7767,-1.7732,-1.7739,-1.7703,-1.7707,-1.7686,-1.7703,-1.7702,-1.7692,-1.7687,-1.7696,-1.7698,-1.7697,-1.7693,-1.7672,-1.7672,-1.7671,-1.7671,0,-1.7876,-1.7849,-1.7864,-1.7839,-1.7833,-1.7848,-1.7827,-1.7835,-1.7817,-1.7826,-1.7826,-1.7797,-1.78,-1.7773,-1.777,-1.7756,-1.7783,-1.7769,-1.7787,-1.7784,-1.7813,-1.7811,-1.791,-1.7922,-1.7819,-1.782,-1.782,0,-1.7922,-1.7935,-1.7911,-1.7913,-1.7905,-1.7908,-1.7907,-1.7875,-1.7875,-1.7861,-1.7872,-1.7871,-1.7869,-1.7875,-1.7854,-1.7852,-1.7839,-1.7874,-1.7839,-1.7848,-1.7841,-1.7841,-1.7843,-1.7882,-1.7883,-1.7884,-1.7885,0,-1.8008,-1.7994,-1.7993,-1.7989,-1.7988,-1.7983,-1.7975,-1.7979,-1.7944,-1.7946,-1.7948,-1.7946,-1.7943,-1.7944,-1.7937,-1.7927,-1.7901,-1.7896,-1.7903,-1.7913,-1.7923,-1.7919,-1.7809,-1.7894,-1.7893,-1.7893,-1.7892,-1.7892,-1.8074,-1.8084,-1.8069,-1.807,-1.8061,-1.8054,-1.8061,-1.8043,-1.8044,-1.8039,-1.802,-1.8026,-1.8012,-1.8001,-1.7993,-1.7998,-1.7981,-1.799,-1.7992,-1.7995,-1.8001,-1.7921,-1.7996,-1.7996,-1.7996,-1.7995,-1.7995,0,-1.8159,-1.8147,-1.8148,-1.8139,-1.8139,-1.8113,-1.8104,-1.8106,-1.8111,-1.8101,-1.81,-1.8102,-1.8102,-1.8081,-1.8079,-1.8086,-1.8074,-1.8087,-1.8087,-1.8085,-1.8016,-1.8011,-1.8097,-1.8097,-1.8097,-1.8097,-1.8097,-1.8097,-1.8203,-1.8219,-1.8204,-1.8215,-1.8202,-1.8208,-1.8204,-1.8199,-1.819,-1.8194,-1.8194,-1.818,-1.8166,-1.8162,-1.8161,-1.8155,-1.8156,-1.8173,-1.8163,-1.81,-1.809,-1.808,-1.8076,-1.8174,-1.8174,-1.8232,-1.8233,-1.8233]},{"header":{"parameterUnit":"m.s-1","parameterCategory":1,"la1":30.2991,"la2":30.254,"lo1":-89.0895,"lo2":-89.0444,"dx":0.0017,"dy":0.0017,"nx":28,"ny":28,"refTime":"2023-01-20T09:00:00:Z","depth":0,"parameterNumber":3,"parameterNumberName":"V-component_of_WINDS"},"data":[0,0,0,0,0,0,0,0,0,0,0,0,0,0,0,0,0,0,0,0,0,0,0,0,0,0,0,0,0,0,0,0,0,0,0,0,0,0,0,0,0,0,0,0,0,0,0,0,0,0,0,0,0,0,0,0,0,0,-3.5921,-3.5921,0,-3.5924,-3.5924,-3.5924,-3.5883,-3.5882,-3.5881,-3.588,-3.5881,-3.5882,-3.5883,0,0,0,0,0,0,0,0,0,0,0,0,0,-3.5878,-3.5879,-3.5921,-3.5921,-3.5921,-3.5924,-3.5924,-3.5924,-3.5883,-3.5882,-3.588,-3.5879,-3.5881,-3.5882,-3.5883,0,0,0,0,0,0,0,0,0,0,0,0,0,-3.5891,-3.588,-3.5921,-3.5901,-3.5899,-3.5924,-3.5924,-3.5924,-3.5883,-3.5882,-3.588,-3.5878,-3.588,-3.5882,-3.5883,-3.5927,0,0,-3.5888,-3.5889,0,0,0,0,0,0,0,0,-3.589,-3.5892,-3.5904,-3.5903,-3.5901,-3.5902,-3.591,-3.5925,-3.5884,-3.5889,-3.588,-3.5878,-3.5889,-3.589,-3.5894,-3.5927,-3.5927,-3.5889,-3.589,-3.589,-3.5891,0,0,0,0,0,0,0,-3.5889,-3.5892,-3.5922,-3.5904,-3.5902,-3.5892,-3.5891,-3.5913,-3.5899,-3.5889,-3.5886,-3.5887,-3.5888,-3.5893,-3.5894,-3.5928,-3.5889,-3.589,-3.5891,-3.5892,-3.5998,-3.6,0,0,0,0,0,0,-3.5891,-3.5892,-3.5922,-3.5922,-3.5891,-3.5894,-3.5894,-3.5903,-3.5898,-3.5896,-3.5888,-3.5885,-3.5891,-3.5892,-3.5894,-3.5946,-3.589,-3.5892,-3.5893,-3.5997,-3.5999,-3.6001,0,0,0,0,0,0,-3.5891,-3.5895,-3.5922,-3.5906,-3.5909,-3.5896,-3.5907,-3.5904,-3.5909,-3.5898,-3.5895,-3.5896,-3.5889,-3.5891,-3.592,-3.5946,-3.5893,-3.5894,-3.5994,-3.5997,-3.6,-3.605,0,0,0,0,0,0,-3.589,-3.5895,-3.5911,-3.5907,-3.591,-3.5949,-3.5909,-3.5905,-3.5912,-3.5907,-3.5904,-3.5902,-3.5888,-3.5918,-3.5921,-3.5947,-3.5895,-3.5992,-3.5996,-3.5999,-3.6046,-3.6055,-3.6062,0,0,0,0,0,-3.5888,-3.5925,-3.5912,-3.5916,-3.5931,-3.595,-3.5952,-3.5936,-3.5914,-3.5931,-3.5924,-3.5902,-3.5942,-3.5921,-3.5925,-3.5951,-3.599,-3.5995,-3.5999,-3.6043,-3.6053,-3.6061,0,0,0,0,0,0,-3.5931,-3.5924,-3.591,-3.5946,-3.5949,-3.5943,-3.5964,-3.5946,-3.5955,-3.5951,-3.593,-3.5929,-3.5961,-3.5959,-3.5935,-3.5994,-3.5962,-3.5968,-3.5995,-3.6004,-3.6012,-3.6012,-3.5897,0,0,0,0,0,-3.5945,-3.5962,-3.5954,-3.5987,-3.5989,-3.5976,-3.5984,-3.5971,-3.5974,-3.5974,-3.597,-3.5972,-3.5985,-3.5994,-3.6006,-3.6046,-3.6045,-3.6066,-3.6073,-3.608,-3.6085,-3.6107,-3.6116,-3.6015,-3.6015,-3.6015,0,0,-3.5973,-3.5971,-3.5983,-3.5995,-3.5996,-3.6014,-3.5978,-3.5998,-3.6011,-3.5977,-3.6004,-3.6001,-3.6002,-3.6037,-3.6052,-3.6036,-3.6113,-3.6085,-3.609,-3.6092,-3.6112,-3.6122,-3.6131,-3.6017,-3.6017,-3.6016,0,0,-3.6034,-3.6034,-3.6062,-3.6064,-3.6067,-3.6058,-3.6065,-3.6062,-3.6059,-3.6086,-3.6062,-3.6077,-3.6099,-3.6102,-3.6106,-3.617,-3.6151,-3.6174,-3.6214,-3.6236,-3.6244,-3.6251,-3.6275,-3.6284,-3.6179,-3.6179,-3.6179,0,-3.6069,-3.6096,-3.6078,-3.6101,-3.6108,-3.6079,-3.6108,-3.611,-3.6116,-3.6121,-3.6103,-3.6132,-3.6131,-3.6166,-3.6182,-3.6186,-3.6194,-3.6175,-3.6244,-3.6251,-3.6258,-3.628,-3.6289,-3.6182,-3.6182,-3.6181,-3.6181,0,-3.6139,-3.6158,-3.618,-3.6188,-3.6197,-3.6222,-3.6209,-3.622,-3.6207,-3.62,-3.6229,-3.6226,-3.6237,-3.6245,-3.6231,-3.6279,-3.6269,-3.6248,-3.6216,-3.6271,-3.6292,-3.63,-3.6186,-3.6185,-3.6184,-3.6183,0,0,-3.6227,-3.6226,-3.6235,-3.6239,-3.624,-3.6254,-3.6278,-3.629,-3.63,-3.6305,-3.6326,-3.6346,-3.6327,-3.6332,-3.6319,-3.6338,-3.6391,-3.6315,-3.6314,-3.633,-3.6444,-3.6461,-3.6471,-3.6378,-3.6379,-3.638,-3.6445,0,-3.6287,-3.633,-3.6316,-3.6359,-3.6376,-3.635,-3.6371,-3.6374,-3.6369,-3.6383,-3.6377,-3.6393,-3.6366,-3.6369,-3.6386,-3.6381,-3.6413,-3.6375,-3.6397,-3.6398,-3.6398,-3.6482,-3.6499,-3.656,-3.6453,-3.6454,-3.6455,0,-3.6364,-3.6374,-3.6419,-3.6419,-3.6426,-3.6445,-3.6456,-3.6469,-3.6472,-3.6467,-3.6474,-3.6457,-3.6481,-3.6448,-3.6481,-3.6456,-3.6463,-3.6462,-3.6464,-3.6466,-3.643,-3.6488,-3.6579,-3.6589,-3.6467,-3.6466,-3.6465,0,-3.6425,-3.6449,-3.648,-3.6484,-3.6484,-3.6499,-3.6499,-3.6501,-3.6509,-3.6518,-3.6524,-3.6535,-3.6541,-3.655,-3.6537,-3.6514,-3.6572,-3.6538,-3.6569,-3.657,-3.6583,-3.6583,-3.6678,-3.6586,-3.6586,-3.6586,-3.6586,0,-3.6495,-3.6524,-3.6508,-3.6527,-3.6559,-3.6542,-3.6574,-3.6571,-3.6573,-3.6591,-3.6569,-3.6586,-3.6567,-3.6582,-3.6572,-3.6601,-3.6604,-3.6601,-3.6598,-3.6604,-3.6604,-3.6609,-3.6605,-3.6588,-3.6588,-3.6587,-3.6587,0,-3.6569,-3.6559,-3.6591,-3.6589,-3.659,-3.6613,-3.6612,-3.6629,-3.6622,-3.6646,-3.665,-3.664,-3.6657,-3.6644,-3.6661,-3.6654,-3.6693,-3.6684,-3.6693,-3.6691,-3.6723,-3.672,-3.6826,-3.6839,-3.6738,-3.6739,-3.6739,0,-3.6614,-3.6637,-3.6638,-3.6649,-3.6651,-3.6669,-3.6678,-3.6663,-3.6673,-3.6679,-3.6696,-3.6712,-3.6723,-3.6752,-3.6746,-3.6759,-3.675,-3.6786,-3.6752,-3.6757,-3.6752,-3.6751,-3.6754,-3.6793,-3.6794,-3.6795,-3.6796,0,-3.6697,-3.6692,-3.6706,-3.672,-3.6732,-3.6742,-3.6749,-3.6759,-3.6744,-3.6757,-3.6775,-3.6784,-3.6802,-3.6818,-3.6828,-3.6828,-3.681,-3.6807,-3.6815,-3.6822,-3.6827,-3.6826,-3.6713,-3.6805,-3.6804,-3.6803,-3.6803,-3.6802,-3.6759,-3.6778,-3.6783,-3.68,-3.6805,-3.6813,-3.683,-3.6826,-3.6841,-3.6855,-3.6845,-3.6867,-3.687,-3.6883,-3.6885,-3.6902,-3.6887,-3.6898,-3.6902,-3.6905,-3.691,-3.6823,-3.6904,-3.6903,-3.6903,-3.6903,-3.6903,0,-3.6842,-3.6844,-3.686,-3.6873,-3.6886,-3.6869,-3.6877,-3.6889,-3.6909,-3.6914,-3.6927,-3.6948,-3.6964,-3.6959,-3.6973,-3.6988,-3.698,-3.6992,-3.6991,-3.6992,-3.6922,-3.6914,-3.6998,-3.6998,-3.6998,-3.6998,-3.6998,-3.6998,-3.6886,-3.6919,-3.6914,-3.6948,-3.6949,-3.6972,-3.6978,-3.6985,-3.699,-3.7015,-3.7028,-3.7026,-3.7027,-3.7041,-3.7055,-3.7053,-3.706,-3.7076,-3.7071,-3.7006,-3.6997,-3.6988,-3.698,-3.7077,-3.7077,-3.714,-3.714,-3.7141]}]]